Location: Newark
(50.0306°N, 2.3272°E)
Time: 21:43:11
(UTC+00:00)

UWE-3 - Visible Passes

Search period start: 27 January 2020 00:00
Search period end: 06 February 2020 00:00
Orbit: 584 x 684 km, 97.6° (Epoch: 27 January)

Date Brightness Start Highest point End Pass type
(mag) Time Alt. Az. Time Alt. Az. Time Alt. Az.
27 Jan ? 04:14:25 10° NE 04:16:49 14° E 04:19:13 10° ESE visible
27 Jan ? 05:49:26 10° N 05:53:42 71° WNW 05:58:05 10° SSW visible
28 Jan ? 04:35:12 10° NE 04:38:39 23° E 04:42:09 10° SE visible
28 Jan ? 06:11:11 10° N 06:15:16 44° WNW 06:19:27 10° SW visible
28 Jan ? 17:12:43 10° SSW 17:16:24 31° W 17:20:06 10° NNW visible
29 Jan ? 04:56:25 10° NNE 05:00:25 36° E 05:04:30 10° SSE visible
29 Jan ? 06:33:03 10° N 06:36:46 29° WNW 06:40:33 10° SW visible
29 Jan ? 17:35:10 10° SW 17:38:11 19° W 17:41:12 10° NW visible
30 Jan ? 05:17:50 10° NNE 05:22:07 58° E 05:26:30 10° S visible
30 Jan ? 17:58:26 10° WSW 18:00:03 12° W 18:01:40 10° WNW visible
31 Jan ? 04:05:01 10° ENE 04:06:45 12° E 04:08:29 10° ESE visible
31 Jan ? 05:39:24 10° NNE 05:43:45 87° WNW 05:48:14 10° SSW visible
01 Feb ? 04:25:26 10° NE 04:28:37 19° E 04:31:49 10° SE visible
01 Feb ? 06:01:05 10° N 06:05:21 54° WNW 06:09:42 10° SSW visible
02 Feb ? 04:46:32 10° NNE 04:50:24 30° E 04:54:21 10° SSE visible
02 Feb ? 06:22:53 10° N 06:26:52 35° WNW 06:30:55 10° SW visible
02 Feb ? 17:24:45 10° SSW 17:28:06 24° W 17:31:29 10° NW visible
03 Feb ? 05:07:52 10° NNE 05:12:08 48° E 05:16:29 10° S visible
03 Feb ? 06:44:51 10° N 06:48:19 23° WNW 06:51:51 10° WSW visible
03 Feb ? 17:47:33 10° SW 17:49:55 15° W 17:52:20 10° NW visible
04 Feb ? 05:29:23 10° NNE 05:33:48 77° ESE 05:38:19 10° S visible
05 Feb ? 04:15:46 10° NE 04:18:33 16° E 04:21:23 10° SE visible
05 Feb ? 05:51:00 10° N 05:55:25 67° WNW 05:59:55 10° SSW visible
